Regional Weather Roundup
Issued by NWS

Home | Current Version | Previous Version | Text Only | Print | Product List | Glossary On
Versions: 1 2 3 4 5 6 7 8 9 10 11 12 13 14 15 16 17 18 19 20 21 22 23 24 25 26 27 28 29 30 31 32 33 34 35 36 37 38 39 40 41 42 43 44 45 46 47 48 49 50
000
ASUS43 KMPX 290410
RWRMN
WEATHER ROUNDUP FOR MINNESOTA
NATIONAL WEATHER SERVICE TWIN CITIES/CHANHASSEN MN
1100 PM CDT SUN MAY 28 2017


NOTE: "FAIR" INDICATES FEW OR NO CLOUDS BELOW 12,000 FEET WITH NO
SIGNIFICANT WEATHER AND/OR OBSTRUCTIONS TO VISIBILITY. N/A MEANS
CURRENT SKY AND/OR WEATHER CONDITIONS ARE NOT AVAILABLE.

MNZ060>063-068>070-290500-
   Twin Cities Metro

CITY           SKY/WX    TMP DP  RH WIND       PRES   REMARKS
TWIN CITIES    PTCLDY    56  50  80 SW6       29.75R
ST PAUL        PTCLDY    55  50  83 W7        29.74S
CRYSTAL        MOCLDY    53  48  83 W6        29.73S
BLAINE         PTCLDY    54  54 100 SW7       29.73S
LAKEVILLE      PTCLDY    55  46  71 W3        29.75S
EDEN PRAIRIE   CLOUDY    58  46  64 W7        29.74R
SOUTH ST PAUL  CLEAR     55  49  78 W6        29.74S
LAKE ELMO      FAIR      50  50 100 W5        29.74S
$$
MNZ001>005-007-008-013>017-022>024-027-028-290500-
   Northwest Minnesota

CITY           SKY/WX    TMP DP  RH WIND       PRES   REMARKS
BEMIDJI        CLOUDY    50  48  92 NW12      29.71S
HALLOCK        CLOUDY    54  48  82 NW14      29.77S
ROSEAU         CLOUDY    52  46  82 NW8       29.73R
WARROAD        CLOUDY    52  46  82 NW9G17    29.72R
THIEF RVR FALL LGT RAIN  50  48  93 NW15      29.76S
CROOKSTON      CLOUDY    52  48  87 NW14G22   29.78S
FOSSTON        CLOUDY    48  46  93 NW10      29.75S
DETROIT LAKES  CLOUDY    52  46  82 NW8       29.78S
MOORHEAD       CLOUDY    54  48  82 NW15G23   29.80S
PARK RAPIDS    CLOUDY    52  46  80 NW14      29.72R
MAHNOMEN       CLOUDY    51  47  88 NW14      29.76S
$$
MNZ006-009>011-018-025>026-290500-
   North Central Minnesota

CITY           SKY/WX    TMP DP  RH WIND       PRES   REMARKS
BAUDETTE       CLOUDY    53  47  79 NW13      29.68R
FLAG ISLAND    MOCLDY    52  46  82 NW18      29.68S
INTL FALLS     CLOUDY    54  49  83 NW8       29.63F
WASKISH        LGT RAIN  54  50  87 NW9       29.69S
BIG FORK       CLOUDY    54  48  82 W3        29.66S
LONGVILLE      CLOUDY    52  50  93 W6        29.69F
GRAND RAPIDS   CLOUDY    53  49  86 W6        29.68S
CRANE LAKE     CLOUDY    50  50 100 CALM      29.64S
ORR            MOCLDY    54  46  76 NW6       29.61S
COOK           CLOUDY    54  48  82 W3        29.63F
WALKER         CLOUDY    50  48  92 NW10      29.71R
$$
MNZ012-019>021-037-290500-
   Northeast Minnesota

CITY           SKY/WX    TMP DP  RH WIND       PRES   REMARKS
DULUTH         PTCLDY    51  48  89 W10       29.64F
ELY            LGT RAIN  52  48  87 W6        29.62S
HIBBING        CLOUDY    50  50 100 SW5       29.64S
EVELETH        PTCLDY    53  46  77 W5        29.64F
DULUTH HARBOR  CLOUDY    55  52  88 W9        29.64F
TWO HARBORS    MOCLDY    54  48  82 W5        29.60F
SILVER BAY     MOCLDY    52  52 100 CALM      29.59F
GRAND MARAIS     N/A     43  42  97 CALM      29.59F
G MARAIS ARPRT DRIZZLE   48  45  87 CALM      29.60S
$$
MNZ029>031-032-039>041-046>048-054>057-064-290500-
   West Central Minnesota

CITY           SKY/WX    TMP DP  RH WIND       PRES   REMARKS
FERGUS FALLS   CLOUDY    54  48  82 N10G17    29.79S
WHEATON        MOCLDY    54  45  71 W6        29.84R
MORRIS         CLEAR     54  46  76 NW12      29.80S
ALEXANDRIA     MOCLDY    53  47  79 NW15G24   29.78R
ELBOW LAKE     CLOUDY    53  48  84 W13G18    29.81R
WADENA         MOCLDY    52  46  82 NW14G21   29.75R
GLENWOOD       PTCLDY    54  46  76 W16       29.78R
APPLETON       CLEAR     55  45  67 W10       29.82S
BENSON         PTCLDY    54  46  76 N12       29.82S
ORTONVILLE     CLEAR     55  45  67 NW9       29.84R
MADISON        CLEAR     57  46  67 NW10      29.85R
WILLMAR        FAIR      57  48  72 NW20G31   29.81R
$$
MNZ033>034-036-042>043-049>051-058-059-290500-
   Central Minnesota

CITY           SKY/WX    TMP DP  RH WIND       PRES   REMARKS
ST CLOUD       CLOUDY    53  50  89 SW8       29.73F
SAUK CENTRE    CLOUDY    54  47  78 NW13G20   29.76S
PAYNESVILLE    CLOUDY    57  46  65 W15       29.77S
AITKIN         CLOUDY    52  46  82 W3        29.68S
PINE RIVER     CLOUDY    52  48  87 W6        29.75R
BRAINERD       CLOUDY    53  48  83 W8        29.71R
STAPLES        CLOUDY    52  48  87 NW10      29.73S
LONG PRAIRIE   CLOUDY    52  46  82 W9G16     29.75S
LITTLE FALLS   CLOUDY    52  46  82 W8        29.74R
LITCHFIELD     CLOUDY    61  46  59 W12G21    29.77F
BUFFALO        CLOUDY    55  47  75 CALM      29.76S
MAPLE LAKE     CLOUDY    54  51  88 CALM      29.75F
HUTCHINSON     CLOUDY    58  45  60 SW12G20   29.79S
$$
MNZ037-044-045-052-053-290500-
   East Central Minnesota

CITY           SKY/WX    TMP DP  RH WIND       PRES   REMARKS
PRINCETON      PTCLDY    52  48  87 CALM      29.72F
MORA           CLEAR     50  46  87 W7        29.72R
CAMBRIDGE      PTCLDY    54  45  71 W6        29.70S
RUSH CITY      CLOUDY    54  48  79 W7        29.70S
MOOSE LAKE     PTCLDY    48  45  87 W5        29.66F
HINCKLEY       FAIR      50  46  87 W7        29.69S
CLOQUET        PTCLDY    50  46  87 SW6       29.65F
MCGREGOR       CLOUDY    52  48  87 NW3       29.68S
$$
MNZ071>073-080-081-089-090-097-098-290500-
   Southwest Minnesota

CITY           SKY/WX    TMP DP  RH WIND       PRES   REMARKS
MONTEVIDEO     PTCLDY    57  45  62 N15G23    29.83R
CANBY          CLEAR     56  44  64 NW14      29.87R
MARSHALL       PTCLDY    57  46  66 NW21      29.83F
REDWOOD FALLS  PTCLDY    58  44  60 W14       29.80R
OLIVIA         MOCLDY    57  43  58 W15G21    29.79S
PIPESTONE      PTCLDY    54  46  76 W7        29.88R
WINDOM         PTCLDY    54  46  76 W7        29.84S
WORTHINGTON    PTCLDY    54  46  74 SW8       29.86S
JACKSON        CLOUDY    54  45  71 W7        29.84F
TRACY          MOCLDY    57  47  69 W9        29.84S
SLAYTON        CLEAR     53  47  78 W10       29.87R
$$
MNZ065>067-074>077-082>085-091>093-290500-
   South Central Minnesota

CITY           SKY/WX    TMP DP  RH WIND       PRES   REMARKS
NEW ULM        CLEAR     57  43  58 W12       29.80S
ST JAMES       PTCLDY    57  46  67 W9        29.83S
FAIRMONT       CLOUDY    59  43  55 W9        29.82F
GLENCOE        CLOUDY    59  48  65 W8        29.77S
FARIBAULT      PTCLDY    57  45  62 W7        29.78F
OWATONNA       CLEAR     57  43  58 W7        29.78F
WASECA         CLEAR     59  43  55 W13       29.80S
ALBERT LEA     PTCLDY    64  45  48 W9G20     29.81S
$$
MNZ078>079-086>088-094>096-290500-
   Southeast Minnesota

CITY           SKY/WX    TMP DP  RH WIND       PRES   REMARKS
ROCHESTER      CLOUDY    60  43  53 W16       29.78R
RED WING       CLOUDY    54  50  87 W3        29.73S
STANTON        CLEAR     58  45  61 W3        29.75S
DODGE CENTER   PTCLDY    59  41  51 W9        29.78S
WINONA         CLOUDY    59  48  67 CALM      29.72F
AUSTIN         CLOUDY    61  41  48 W9G18     29.80R
PRESTON        PTCLDY    60  41  49 W15       29.77S
$$
ABBREVIATIONS USED IN REMARKS
   TC - TEMPERATURES IN CELSIUS
  WCI - WIND CHILL INDEX
   HX - HEAT INDEX
  VSB - VISIBILITY
$$




USA.gov is the U.S. government's official web portal to all federal, state and local government web resources and services.